Location: Arbon
(43.0005°N, 0.7472°E)
Time: 08:41:16
(UTC+00:00)

SR - Pass Details

Date: 03 December 2020
Orbit: 575 x 880 km, 66.7° (Epoch: 27 January)

Event Time Altitude Azimuth Distance (km) Brightness Sun altitude
Rises 23:58:56 0° 341° (NNW) 3,149 - -69.0°
Reaches altitude 10° 00:02:46 10° 10° (N) 2,301 - -68.9°
Maximum altitude 00:05:02 13° 36° (NE) 2,161 - -68.8°
Drops below altitude 10° 00:07:22 10° 61° (ENE) 2,382 - -68.7°
Sets 00:11:28 0° 89° (E) 3,377 - -68.5°
